Moose, WY (83012)

12:21 AM MST on January 24, 2017 (GMT -0700)
MC3261 | | Change Station
Active Advisory: Winter Storm Warning

Elev 6438 ft 43.61 °N, 110.75 °W | Updated 8 minutes ago

Overcast
Overcast
24.0 °F
Feels Like 24 °F
N
0.0
Wind Variable Wind from NNW

Today
High -- | Low -- °F
--% Chance of Precip.
Yesterday
High -- | Low -- °F
Precip. -- in
Pressure 29.48 in
Visibility 2.5 miles
Clouds Overcast 1300 ft
Windchill 24 °F
Dew Point 22 °F
Humidity 90%
Rainfall 0.04 in
Snow Depth Not available.
7:46 AM 5:23 PM
Waning Crescent, 13% visible
METAR KJAC 240715Z AUTO 01008KT 2 1/2SM OVC013 M04/M04 A2948 RMK AO1 VIS 1 3/4V3
Pressure 29.48 in
Visibility 2.5 miles
Clouds Overcast 1300 ft
Windchill 24 °F
Dew Point 22 °F
Humidity 90%
Rainfall 0.04 in
Snow Depth Not available.
7:46 AM 5:23 PM
Waning Crescent, 13% visible
METAR KJAC 240715Z AUTO 01008KT 2 1/2SM OVC013 M04/M04 A2948 RMK AO1 VIS 1 3/4V3

Get Your Daily Forecast Email!

Thanks for signing up!

Be on the lookout for a verification email in your inbox.

You'll start receiving the daily forecast at 8 AM.

×

10-Day Weather Forecast

Almanac

Astronomy

Jan. 24, 2017 Rise Set
Actual Time
Civil Twilight
Nautical Twilight
Astronomical Twilight
Moon
Length of Visible Light
Length of Day
Tomorrow will be .
, % of the Moon is Illuminated

Today's Extremes

State Highs State Lows

Community

WunderPhotos

Upload Photos

1,962,540 photos uploaded!

WunderBlog® & News

Nearby

Air Quality

  Air Quality AQ Index Pollutant
Not available.

Snow Depth

Station Depth Elevation

Earthquake Activity

City Distance Mag. Time & Date
Minimum magnitude displayed is 2.5.

Coastal Water Temperatures

Place Temperature

Stations

Nearby Weather Stations

Station Location Temp. Windchill Dew Point Humidity Wind Precip. Elev Updated Type
                   

Watches & Warnings

Winter Storm Warning
Issued: 11:01 PM MST Jan. 23, 2017 – National Weather Service

... Winter Storm Warning remains in effect until noon MST
Tuesday...

* timing... periods of snow through tonight. Bursts of moderate
to heavy snow will occur. Snow tapers off by late morning
Tuesday.

* Snowfall so far... 1 to 3 inches has occurred through noon in
the valley with 6 to 8 inches in the mountains.

* Snow totals... 6 to 8 inches in the valleys. 10 to 15 inches in
the mountains.

* Visibility... quarter to half mile in heavier snow.

* Impacts... roads and highways will be slick and snow packed.
Please monitor jhavalanche.Org if your plans include travel
into the back country.

Precautionary/preparedness actions...

A Winter Storm Warning means significant amounts of snow... and
or blowing snow are expected or occurring. This could make travel
very hazardous or impossible. If you must travel keep some food...
water... and an extra flashlight in your vehicle in case of an
emergency. Check the latest Road conditions at wyoroad.Info or by
dialing 5 1 1.